Date String (YYYY-MM-DD hh:mm:ss) UTC,Instrument flags,Ambient pressure (hPa),Sample flow (lpm),Bypass flow (lpm),Sample temperature (°C),Ambient temperature (°C),ASC tube jacket temperature (°C),LED temperature (°C),Box temperature (°C),Sample RH (%),Span deviation,Mass concentration (μg/m³),Mass concentration (μg/m³),Mass concentration (μg/m³)
DateTimeUTC,F1_M11,P_M11,Q1_M11,Q2_M11,T1_M11,T2_M11,T3_M11,T4_M11,T5_M11,U1_M11,ZSPAN_M11,X0_M11,X2_M11,X1_M11
2023-02-26 22:00:00,,0807.3,5.01,0.00,25.7,24.0,00.0,34.5,27.4,11.4,0000.0,0005.39,0002.03,0000.98
2023-02-26 22:01:00,,0807.3,5.00,0.00,25.7,23.9,00.0,34.5,27.4,11.4,0000.0,0005.35,0002.03,0000.99
2023-02-26 22:02:00,,0807.4,5.01,0.00,25.7,23.9,00.0,34.4,27.4,11.9,0000.0,0005.37,0002.07,0000.98
2023-02-26 22:03:00,,0807.4,5.00,0.00,25.6,23.9,00.0,34.4,27.5,11.8,0000.0,0005.35,0002.07,0000.98
2023-02-26 22:04:00,,0807.4,5.02,0.00,25.6,24.0,00.0,34.4,27.4,11.9,0000.0,0005.07,0002.07,0000.97
2023-02-26 22:05:00,,0807.4,5.00,0.00,25.6,24.0,00.0,34.4,27.5,11.9,0000.0,0004.57,0002.06,0000.97
2023-02-26 22:06:00,,0807.5,4.99,0.00,25.6,24.0,00.0,34.4,27.5,11.5,0000.0,0004.53,0002.04,0000.96
2023-02-26 22:07:00,,0807.4,5.00,0.00,25.6,24.0,00.0,34.4,27.5,11.5,0000.0,0004.46,0002.01,0000.97
2023-02-26 22:08:00,,0807.5,5.01,0.00,25.6,24.0,00.0,34.4,27.4,11.3,0000.0,0004.44,0002.04,0000.98
2023-02-26 22:09:00,,0807.5,5.01,0.00,25.6,24.0,00.0,34.4,27.4,11.3,0000.0,0004.35,0002.07,0000.97
2023-02-26 22:10:00,,0807.5,5.00,0.00,25.6,24.1,00.0,34.4,27.5,11.1,0000.0,0004.04,0001.99,0000.97
2023-02-26 22:11:00,,0807.5,5.00,0.00,25.6,24.1,00.0,34.4,27.5,11.4,0000.0,0003.93,0001.98,0000.98
2023-02-26 22:12:00,,0807.6,4.99,0.00,25.6,24.1,00.0,34.4,27.5,12.5,0000.0,0004.21,0002.19,0001.13
2023-02-26 22:13:00,,0807.6,4.99,0.00,25.6,24.2,00.0,34.4,27.5,14.1,0000.0,0005.06,0002.97,0001.84
2023-02-26 22:14:00,,0807.7,5.00,0.00,25.7,24.2,00.0,34.4,27.5,14.7,0000.0,0005.83,0003.52,0002.72
2023-02-26 22:15:00,,0807.7,5.01,0.00,25.7,24.3,00.0,34.4,27.5,14.2,0000.0,0006.62,0003.95,0003.32
2023-02-26 22:16:00,,0807.7,5.01,0.00,25.7,24.3,00.0,34.4,27.5,14.8,0000.0,0007.60,0004.44,0003.79
2023-02-26 22:17:00,,0807.7,4.99,0.00,25.7,24.3,00.0,34.4,27.5,14.9,0000.0,0008.06,0004.92,0004.28
2023-02-26 22:18:00,,0807.7,5.00,0.00,25.7,24.3,00.0,34.4,27.5,14.7,0000.0,0008.57,0005.39,0004.72
2023-02-26 22:19:00,,0807.7,5.00,0.00,25.7,24.3,00.0,34.4,27.6,14.3,0000.0,0008.98,0005.78,0005.11
2023-02-26 22:20:00,,0807.7,5.01,0.00,25.7,24.3,00.0,34.4,27.6,14.1,0000.0,0009.62,0006.21,0005.49
2023-02-26 22:21:00,,0807.7,5.00,0.00,25.7,24.3,00.0,34.4,27.6,13.9,0001.7,0010.15,0006.63,0005.87
2023-02-26 22:22:00,,0807.7,5.00,0.00,25.7,24.2,00.0,34.4,27.6,14.0,0004.7,0010.73,0007.04,0006.24
2023-02-26 22:23:00,,0807.7,5.00,0.00,25.7,24.2,00.0,34.4,27.6,13.8,0004.9,0011.29,0007.35,0006.52
2023-02-26 22:24:00,,0807.6,5.00,0.00,25.7,24.2,00.0,34.4,27.6,14.1,0005.0,0011.54,0007.32,0006.51
2023-02-26 22:25:00,,0807.6,5.01,0.00,25.7,24.2,00.0,34.4,27.6,13.8,0004.7,0011.51,0007.21,0006.38
2023-02-26 22:26:00,,0807.6,5.01,0.00,25.7,24.2,00.0,34.4,27.6,13.5,0004.7,0011.45,0007.14,0006.31
2023-02-26 22:27:00,,0807.6,5.01,0.00,25.7,24.2,00.0,34.4,27.5,13.7,0002.6,0011.24,0007.03,0006.17
2023-02-26 22:28:00,,0807.6,5.00,0.00,25.7,24.2,00.0,34.4,27.6,13.5,0000.0,0011.24,0006.95,0006.06
2023-02-26 22:29:00,,0807.7,5.00,0.00,25.7,24.2,00.0,34.4,27.5,12.1,0000.0,0011.05,0006.71,0005.83
2023-02-26 22:30:00,,0807.7,4.99,0.00,25.7,24.3,00.0,34.4,27.6,12.3,0000.0,0011.04,0006.52,0005.62
2023-02-26 22:31:00,,0807.6,5.00,0.00,25.7,24.3,00.0,34.4,27.6,13.1,0000.0,0010.78,0006.34,0005.49
2023-02-26 22:32:00,,0807.7,5.00,0.00,25.7,24.4,00.0,34.4,27.6,13.6,0000.0,0010.51,0006.24,0005.44
2023-02-26 22:33:00,,0807.7,5.00,0.00,25.7,24.4,00.0,34.5,27.6,13.9,0000.0,0010.33,0006.24,0005.45
2023-02-26 22:34:00,,0807.7,5.00,0.00,25.7,24.4,00.0,34.5,27.6,14.3,0000.0,0010.10,0006.28,0005.53
2023-02-26 22:35:00,,0807.6,5.00,0.00,25.7,24.4,00.0,34.5,27.6,14.2,0000.0,0009.90,0006.36,0005.61
2023-02-26 22:36:00,,0807.7,5.00,0.00,25.7,24.3,00.0,34.5,27.6,14.2,0000.0,0010.05,0006.46,0005.72
2023-02-26 22:37:00,,0807.6,5.00,0.00,25.7,24.3,00.0,34.5,27.6,14.4,0000.0,0011.58,0006.64,0005.88
2023-02-26 22:38:00,,0807.7,5.00,0.00,25.7,24.3,00.0,34.5,27.6,14.5,0000.0,0011.86,0006.78,0006.03
2023-02-26 22:39:00,,0807.6,5.00,0.00,25.7,24.2,00.0,34.5,27.6,14.7,0000.0,0011.90,0006.90,0006.16
2023-02-26 22:40:00,,0807.6,5.01,0.00,25.7,24.2,00.0,34.5,27.6,14.7,0000.0,0012.27,0007.21,0006.45
2023-02-26 22:41:00,,0807.7,4.99,0.00,25.8,24.2,00.0,34.5,27.6,14.9,0001.1,0012.43,0007.55,0006.78
2023-02-26 22:42:00,,0807.6,5.00,0.00,25.7,24.1,00.0,34.5,27.6,15.4,0003.5,0012.63,0007.84,0007.07
2023-02-26 22:43:00,,0807.6,5.00,0.00,25.7,24.1,00.0,34.5,27.6,15.3,0003.4,0013.30,0008.12,0007.28
2023-02-26 22:44:00,,0807.5,5.01,0.00,25.7,24.1,00.0,34.5,27.6,15.1,0003.4,0014.06,0008.30,0007.42
2023-02-26 22:45:00,,0807.6,4.99,0.00,25.7,24.1,00.0,34.5,27.6,14.9,0002.9,0014.40,0008.33,0007.46
2023-02-26 22:46:00,,0807.7,4.99,0.00,25.7,24.0,00.0,34.5,27.5,14.4,0002.2,0014.56,0008.30,0007.46
2023-02-26 22:47:00,,0807.7,5.00,0.00,25.7,24.1,00.0,34.5,27.5,15.3,0003.2,0014.48,0008.30,0007.46
2023-02-26 22:48:00,,0807.7,5.01,0.00,25.7,24.1,00.0,34.5,27.5,15.4,0003.6,0013.43,0008.33,0007.44
2023-02-26 22:49:00,,0807.7,5.01,0.00,25.7,24.1,00.0,34.5,27.6,15.0,0004.0,0013.16,0008.27,0007.41
2023-02-26 22:50:00,,0807.6,5.00,0.00,25.7,24.2,00.0,34.5,27.6,14.9,0003.8,0013.24,0008.27,0007.37
2023-02-26 22:51:00,,0807.6,5.00,0.00,25.7,24.2,00.0,34.5,27.6,14.6,0003.3,0013.11,0008.19,0007.30
2023-02-26 22:52:00,,0807.7,5.01,0.00,25.7,24.3,00.0,34.5,27.6,14.6,0002.1,0012.96,0008.07,0007.20
2023-02-26 22:53:00,,0807.6,5.00,0.00,25.7,24.3,00.0,34.5,27.6,14.2,0000.6,0012.83,0007.93,0007.07
2023-02-26 22:54:00,,0807.6,5.00,0.00,25.7,24.3,00.0,34.5,27.6,13.8,0000.0,0012.37,0007.76,0006.92
2023-02-26 22:55:00,,0807.5,4.99,0.00,25.7,24.4,00.0,34.5,27.6,11.3,0000.0,0011.45,0007.38,0006.58
2023-02-26 22:56:00,,0807.5,4.99,0.00,25.7,24.3,00.0,34.5,27.6,11.5,0000.0,0010.93,0007.03,0006.21
2023-02-26 22:57:00,,0807.5,5.00,0.00,25.7,24.3,00.0,34.5,27.5,12.5,0000.0,0010.49,0006.80,0005.98
2023-02-26 22:58:00,,0807.5,5.00,0.00,25.7,24.2,00.0,34.5,27.5,12.1,0000.0,0010.33,0006.56,0005.73
2023-02-26 22:59:00,,0807.5,4.99,0.00,25.7,24.1,00.0,34.5,27.4,12.8,0000.0,0009.91,0006.29,0005.52
